Regional Weather Roundup
Issued by NWS

Home | Current Version | Previous Version | Text Only | Print | Product List | Glossary Off
Versions: 1 2 3 4 5 6 7 8 9 10 11 12 13 14 15 16 17 18 19 20 21 22 23 24 25 26 27

000
ASUS45 KBOU 281907
RWRCO

WEATHER ROUNDUP FOR COLORADO
NATIONAL WEATHER SERVICE DENVER/BOULDER CO
1200 PM MST TUE FEB 28 2017

NOTE: "FAIR" INDICATES FEW OR NO CLOUDS BELOW 12000 FEET WITH NO
SIGNIFICANT WEATHER AND/OR OBSTRUCTIONS TO VISIBILITY.

COZ001>005-013-030-031-282000-
...NORTHWEST COLORADO...

CITY           SKY/WX    TMP DP  RH WIND       PRES   REMARKS
CRAIG          CLOUDY    23  13  65 W8        29.85R WCI  14
HAYDEN         CLOUDY    23   9  54 W8        29.82R WCI  14
MEEKER         FLURRIES  26  18  71 VRB7      29.82R WCI  18
MOUNT WERNER   NOT AVBL
STEAMBOAT SPGS CLOUDY    21  13  72 CALM      29.80R
WALDEN         NOT AVBL
$$

COZ006>008-011-282000-
...WEST CENTRAL VALLEYS...

CITY           SKY/WX    TMP DP  RH WIND       PRES   REMARKS
GRAND JUNCTION FAIR      34  30  85 NE3       29.85R
MONTROSE       LGT SNOW  29  27  92 E8        29.83S FOG     WCI  21
EAGLE          NOT AVBL
RIFLE          PTSUNNY   32  23  69 W8        29.82S WCI  25
DELTA          FAIR      38  31  73 SW7       29.79R
NUCLA          PTSUNNY   34  30  86 SW5       29.86R WCI  30
$$

COZ017>023-064>068-282000-
...SOUTHWEST COLORADO...

CITY           SKY/WX    TMP DP  RH WIND       PRES   REMARKS
DURANGO        PTSUNNY   32  27  81 SW17      29.80R WCI  21
CORTEZ         CLOUDY    35  32  88 SW9       29.84R WCI  28
PAGOSA SPRINGS CLOUDY    32  25  74 SW17G24   29.77S WCI  21
TELLURIDE      SNOW      24  19  81 W15G24    29.77R VSB 1/2 WCI  11
WOLF CREEK PAS CLOUDY    16  14  93 SW18G25   29.75S WCI  -1
$$

COZ009-010-012-014-032>034-037-058>063-282000-
...CENTRAL COLORADO...

CITY           SKY/WX    TMP DP  RH WIND       PRES   REMARKS
ASPEN          LGT SNOW  23  19  85 NE3       29.73S VSB 1
BUENA VISTA    PTSUNNY   37  16  42 W7        29.61F
COPPER MTN     SNOW      14   9  79 MISG      29.63R VSB 1/2
BERTHOUD PASS  SNOW       7  -4  61 NW22G29   29.58F VSB 1/4 WCI -14
COTTONWOOD PAS FLURRIES  30  18  59 SW12      29.61F WCI  21
GUNNISON       FAIR      30  22  72 SW14G21   29.70R WCI  19
KREMMLING      CLOUDY    30  21  69 N3        29.73F
LEADVILLE      CLOUDY    18  10  71 NW15G24   29.63R WCI   4
MONARCH PASS   CLOUDY    16  12  86 W32G45    29.72F WCI  -5
SALIDA         FAIR      40  17  38 SW13G22   29.72F
SUNLIGHT       NOT AVBL
WILKERSON PASS CLOUDY    21  18  86 SW12G17   29.63F WCI   9
$$

COZ069>075-282000-
...SAN LUIS VALLEY/SANGRE DE CRISTO MOUNTAINS...

CITY           SKY/WX    TMP DP  RH WIND       PRES   REMARKS
ALAMOSA        CLOUDY    38  29  70 N12       29.69R
LA VETA PASS   CLOUDY    27  19  74 S36G48    29.65F HAZE    WCI   9
SAGUACHE       PTSUNNY   36  25  64 NW3       29.67F
$$

COZ035-036-038>040-282000-
...NORTHERN COLORADO FRONT RANGE...

CITY           SKY/WX    TMP DP  RH WIND       PRES   REMARKS
DENVER INTL AP CLOUDY    33  17  51 E15       29.68S WCI  23
DMNS CITY PARK   N/A     37  17  44 E10       29.67S
AURORA         CLOUDY    33  20  58 SE10      29.68S WCI  25
FRONT RANGE AP CLOUDY    34  21  60 E13G24    29.70S WCI  25
ERIE MUNI ARPT PTSUNNY   39  14  35 E12       29.69R
BOULDER MUN AP CLOUDY    37  16  41 E3        29.68R
CENTENNIAL     CLOUDY    33  21  61 E8        29.66S WCI  26
BROOMFIELD     CLOUDY    37  16  41 E9        29.68S
FORT COLLINS   FAIR      38  19  46 VRB5      29.70S
LONGMONT       NOT AVBL
$$

COZ041-046-047-076>085-087-088-282000-
...PIKES PEAK/PALMER DIVIDE AND SOUTHERN FOOTHILLS...

CITY           SKY/WX    TMP DP  RH WIND       PRES   REMARKS
COLO. SPRINGS  FLURRIES  34  20  56 S18G24    29.69F WCI  23
A. F. ACADEMY  PTSUNNY   32  21  62 S13G20    29.65F WCI  23
SCHRIEVER AFB  FLURRIES  30  22  72 SE13G21   29.70  WCI  20
ELLICOTT       LGT RAIN N/A N/A N/A S7G22     29.68F
FALCON         FAIR      33  15  47 S14G22    29.68F WCI  24
FORT CARSON    PTSUNNY   34  23  64 SE12      29.69F WCI  25
LIMON          CLOUDY    36  14  40 E15G21    29.70F
MONUMENT HILL  CLOUDY    32  19  59 S21G28    29.64F WCI  20
TRINIDAD       FAIR      47  20  34 NE23      29.63F
$$

COZ042>045-048>051-090-091-282000-
...NORTHEAST COLORADO...

CITY           SKY/WX    TMP DP  RH WIND       PRES   REMARKS
GREELEY ARPT   FAIR      38  20  48 SE13      29.73R
AKRON          LGT SNOW  27  22  81 N13       29.74R VSB 1   WCI  16
BURLINGTON     CLOUDY    41  11  29 N18       29.71F
WRAY           NOT AVBL
STERLING       FLURRIES  32  21  64 NW16      29.76R WCI  21
HOLYOKE        FAIR      39   5  24 NW12      29.76R
FORT MORGAN    LGT SNOW  29  25  84 E5        29.76S WCI  24
$$

COZ086-089-092>099-282000-
...SOUTHEAST COLORADO...

CITY           SKY/WX    TMP DP  RH WIND       PRES   REMARKS
PUEBLO         CLOUDY    40  18  41 MISG      29.72F
LA JUNTA       FAIR      50  16  25 NE14      29.68F
LAMAR          FAIR      51  17  26 E10       29.65F
SPRINGFIELD      N/A     50  25  37 NE14      29.61F
$$




USA.gov is the U.S. government's official web portal to all federal, state and local government web resources and services.